Time,TemperatureF,DewpointF,PressureIn,WindDirection,WindDirectionDegrees,WindSpeedMPH,WindSpeedGustMPH,Humidity,HourlyPrecipIn,Conditions,Clouds,dailyrainin,SoftwareType,DateUTC
2013-05-09 00:09:00,58.8,57.0,30.05,West,268,0.0,-999.0,93,-99.99,,,0.00,weatherlink.com 1.10,2013-05-09 04:09:00,
2013-05-09 00:24:00,58.7,57.0,30.05,West,268,0.0,-999.0,94,-99.99,,,0.00,weatherlink.com 1.10,2013-05-09 04:24:00,
2013-05-09 00:39:00,58.7,57.0,30.05,West,268,0.0,-999.0,94,-99.99,,,0.00,weatherlink.com 1.10,2013-05-09 04:39:00,
2013-05-09 00:54:00,58.6,57.0,30.05,West,268,0.0,-999.0,94,-99.99,,,0.00,weatherlink.com 1.10,2013-05-09 04:54:00,
2013-05-09 01:09:00,58.5,57.0,30.05,West,268,0.0,-999.0,94,-99.99,,,0.00,weatherlink.com 1.10,2013-05-09 05:09:00,
2013-05-09 01:24:00,58.5,57.0,30.05,West,268,0.0,-999.0,95,-99.99,,,0.00,weatherlink.com 1.10,2013-05-09 05:24:00,
2013-05-09 01:39:00,58.4,57.0,30.04,West,268,0.0,-999.0,95,-99.99,,,0.00,weatherlink.com 1.10,2013-05-09 05:39:00,
2013-05-09 01:54:00,58.2,57.0,30.04,West,268,0.0,-999.0,95,-99.99,,,0.00,weatherlink.com 1.10,2013-05-09 05:54:00,
2013-05-09 02:09:00,57.9,57.0,30.04,West,268,0.0,-999.0,95,-99.99,,,0.00,weatherlink.com 1.10,2013-05-09 06:09:00,
2013-05-09 02:24:00,57.6,56.0,30.04,West,268,0.0,-999.0,95,-99.99,,,0.00,weatherlink.com 1.10,2013-05-09 06:24:00,
2013-05-09 02:39:00,57.4,56.0,30.03,West,268,0.0,-999.0,95,-99.99,,,0.00,weatherlink.com 1.10,2013-05-09 06:39:00,
2013-05-09 02:54:00,57.2,56.0,30.02,West,268,0.0,-999.0,95,-99.99,,,0.00,weatherlink.com 1.10,2013-05-09 06:54:00,
2013-05-09 03:09:00,57.0,56.0,30.02,West,268,0.0,-999.0,95,-99.99,,,0.00,weatherlink.com 1.10,2013-05-09 07:09:00,
2013-05-09 03:25:00,56.8,55.0,30.02,West,268,0.0,-999.0,95,-99.99,,,0.00,weatherlink.com 1.10,2013-05-09 07:25:00,
2013-05-09 03:40:00,56.5,55.0,30.03,West,268,0.0,-999.0,96,-99.99,,,0.00,weatherlink.com 1.10,2013-05-09 07:40:00,
2013-05-09 03:55:00,56.2,55.0,30.03,West,268,0.0,-999.0,95,-99.99,,,0.00,weatherlink.com 1.10,2013-05-09 07:55:00,
2013-05-09 04:10:00,56.0,55.0,30.03,West,268,0.0,-999.0,96,-99.99,,,0.00,weatherlink.com 1.10,2013-05-09 08:10:00,
2013-05-09 04:25:00,55.7,55.0,30.04,West,268,0.0,-999.0,96,-99.99,,,0.00,weatherlink.com 1.10,2013-05-09 08:25:00,
2013-05-09 04:40:00,55.5,54.0,30.04,West,268,0.0,-999.0,96,-99.99,,,0.00,weatherlink.com 1.10,2013-05-09 08:40:00,
2013-05-09 04:55:00,55.3,54.0,30.05,West,268,0.0,-999.0,96,-99.99,,,0.00,weatherlink.com 1.10,2013-05-09 08:55:00,
2013-05-09 05:10:00,55.2,54.0,30.05,West,268,0.0,-999.0,96,-99.99,,,0.00,weatherlink.com 1.10,2013-05-09 09:10:00,
2013-05-09 05:25:00,55.1,54.0,30.06,West,268,0.0,-999.0,96,-99.99,,,0.00,weatherlink.com 1.10,2013-05-09 09:25:00,
2013-05-09 05:40:00,55.1,54.0,30.06,West,268,0.0,-999.0,96,-99.99,,,0.00,weatherlink.com 1.10,2013-05-09 09:40:00,
2013-05-09 05:55:00,55.1,54.0,30.06,West,268,0.0,-999.0,96,-99.99,,,0.00,weatherlink.com 1.10,2013-05-09 09:55:00,
2013-05-09 06:10:00,55.0,54.0,30.06,West,268,0.0,-999.0,96,-99.99,,,0.00,weatherlink.com 1.10,2013-05-09 10:10:00,
2013-05-09 06:25:00,54.9,54.0,30.06,West,268,0.0,-999.0,96,-99.99,,,0.00,weatherlink.com 1.10,2013-05-09 10:25:00,
2013-05-09 06:40:00,54.8,54.0,30.06,West,268,0.0,-999.0,96,-99.99,,,0.00,weatherlink.com 1.10,2013-05-09 10:40:00,
2013-05-09 06:55:00,54.6,54.0,30.06,West,268,0.0,-999.0,96,-99.99,,,0.00,weatherlink.com 1.10,2013-05-09 10:55:00,
2013-05-09 07:10:00,54.6,54.0,30.07,West,268,0.0,-999.0,96,-99.99,,,0.00,weatherlink.com 1.10,2013-05-09 11:10:00,
2013-05-09 07:25:00,54.7,54.0,30.07,West,268,0.0,-999.0,97,-99.99,,,0.00,weatherlink.com 1.10,2013-05-09 11:25:00,
2013-05-09 07:40:00,54.9,54.0,30.08,West,268,0.0,-999.0,97,-99.99,,,0.00,weatherlink.com 1.10,2013-05-09 11:40:00,
2013-05-09 07:55:00,55.4,55.0,30.08,West,268,0.0,-999.0,97,-99.99,,,0.00,weatherlink.com 1.10,2013-05-09 11:55:00,
2013-05-09 08:10:00,55.7,55.0,30.08,West,275,0.0,-999.0,97,-99.99,,,0.00,weatherlink.com 1.10,2013-05-09 12:10:00,
2013-05-09 08:25:00,56.9,56.0,30.08,WNW,297,0.0,-999.0,98,-99.99,,,0.00,weatherlink.com 1.10,2013-05-09 12:25:00,
2013-05-09 08:40:00,58.2,58.0,30.09,WNW,295,0.0,-999.0,98,-99.99,,,0.00,weatherlink.com 1.10,2013-05-09 12:40:00,
2013-05-09 08:55:00,60.1,60.0,30.09,WNW,295,0.0,-999.0,98,-99.99,,,0.00,weatherlink.com 1.10,2013-05-09 12:55:00,
2013-05-09 09:10:00,61.4,61.0,30.10,NW,312,0.0,-999.0,98,-99.99,,,0.00,weatherlink.com 1.10,2013-05-09 13:10:00,
2013-05-09 09:25:00,63.2,62.0,30.10,WNW,289,0.0,-999.0,94,-99.99,,,0.00,weatherlink.com 1.10,2013-05-09 13:25:00,
2013-05-09 09:40:00,65.7,62.0,30.10,NNE,20,0.0,-999.0,89,-99.99,,,0.00,weatherlink.com 1.10,2013-05-09 13:40:00,
2013-05-09 09:55:00,67.7,62.0,30.11,NW,316,2.0,-999.0,83,-99.99,,,0.00,weatherlink.com 1.10,2013-05-09 13:55:00,
2013-05-09 10:10:00,68.6,63.0,30.10,WNW,301,0.0,-999.0,82,-99.99,,,0.00,weatherlink.com 1.10,2013-05-09 14:10:00,
2013-05-09 10:25:00,69.4,63.0,30.11,NW,306,5.0,-999.0,80,-99.99,,,0.00,weatherlink.com 1.10,2013-05-09 14:25:00,
2013-05-09 10:40:00,70.5,63.0,30.11,West,260,3.0,-999.0,77,-99.99,,,0.00,weatherlink.com 1.10,2013-05-09 14:40:00,
2013-05-09 10:55:00,70.9,63.0,30.11,WNW,283,0.0,-999.0,76,-99.99,,,0.00,weatherlink.com 1.10,2013-05-09 14:55:00,
2013-05-09 11:10:00,72.2,62.0,30.11,NNE,13,3.0,-999.0,71,-99.99,,,0.00,weatherlink.com 1.10,2013-05-09 15:10:00,
2013-05-09 11:26:00,73.4,63.0,30.11,WNW,282,2.0,-999.0,69,-99.99,,,0.00,weatherlink.com 1.10,2013-05-09 15:26:00,
2013-05-09 11:41:00,74.0,62.0,30.11,West,273,2.0,-999.0,66,-99.99,,,0.00,weatherlink.com 1.10,2013-05-09 15:41:00,
2013-05-09 11:56:00,74.8,63.0,30.11,WNW,301,2.0,-999.0,66,-99.99,,,0.00,weatherlink.com 1.10,2013-05-09 15:56:00,
2013-05-09 12:11:00,75.9,61.0,30.11,West,275,1.0,-999.0,60,-99.99,,,0.00,weatherlink.com 1.10,2013-05-09 16:11:00,
2013-05-09 12:26:00,76.3,60.0,30.11,SSW,192,3.0,-999.0,58,-99.99,,,0.00,weatherlink.com 1.10,2013-05-09 16:26:00,
2013-05-09 12:41:00,77.0,61.0,30.11,WNW,302,4.0,-999.0,59,-99.99,,,0.00,weatherlink.com 1.10,2013-05-09 16:41:00,
2013-05-09 12:56:00,77.2,60.0,30.11,WNW,299,4.0,-999.0,56,-99.99,,,0.00,weatherlink.com 1.10,2013-05-09 16:56:00,
2013-05-09 13:11:00,78.7,60.0,30.11,NW,306,7.0,-999.0,53,-99.99,,,0.00,weatherlink.com 1.10,2013-05-09 17:11:00,
2013-05-09 13:26:00,78.4,60.0,30.11,NNE,14,2.0,-999.0,54,-99.99,,,0.00,weatherlink.com 1.10,2013-05-09 17:26:00,
2013-05-09 13:41:00,78.7,60.0,30.10,NW,324,8.0,-999.0,53,-99.99,,,0.00,weatherlink.com 1.10,2013-05-09 17:41:00,
2013-05-09 13:56:00,78.1,61.0,30.10,WSW,241,5.0,-999.0,55,-99.99,,,0.00,weatherlink.com 1.10,2013-05-09 17:56:00,
2013-05-09 14:11:00,79.4,60.0,30.10,WNW,292,5.0,-999.0,52,-99.99,,,0.00,weatherlink.com 1.10,2013-05-09 18:11:00,
2013-05-09 14:26:00,79.1,60.0,30.09,NNW,330,4.0,-999.0,53,-99.99,,,0.00,weatherlink.com 1.10,2013-05-09 18:26:00,
2013-05-09 14:41:00,79.1,61.0,30.09,WNW,283,0.0,-999.0,54,-99.99,,,0.00,weatherlink.com 1.10,2013-05-09 18:41:00,
2013-05-09 14:56:00,79.6,61.0,30.08,SSW,212,3.0,-999.0,53,-99.99,,,0.00,weatherlink.com 1.10,2013-05-09 18:56:00,
2013-05-09 15:11:00,80.4,59.0,30.07,NNE,22,5.0,-999.0,48,-99.99,,,0.00,weatherlink.com 1.10,2013-05-09 19:11:00,
2013-05-09 15:26:00,80.1,59.0,30.07,SSW,193,1.0,-999.0,49,-99.99,,,0.00,weatherlink.com 1.10,2013-05-09 19:26:00,
2013-05-09 15:41:00,80.0,60.0,30.06,WNW,295,1.0,-999.0,50,-99.99,,,0.00,weatherlink.com 1.10,2013-05-09 19:41:00,
2013-05-09 15:56:00,79.6,60.0,30.06,West,272,1.0,-999.0,51,-99.99,,,0.00,weatherlink.com 1.10,2013-05-09 19:56:00,
2013-05-09 16:11:00,79.6,60.0,30.06,NW,312,1.0,-999.0,52,-99.99,,,0.00,weatherlink.com 1.10,2013-05-09 20:11:00,
2013-05-09 16:26:00,79.5,60.0,30.05,WNW,283,1.0,-999.0,52,-99.99,,,0.00,weatherlink.com 1.10,2013-05-09 20:26:00,
2013-05-09 16:41:00,79.5,60.0,30.05,North,356,4.0,-999.0,51,-99.99,,,0.00,weatherlink.com 1.10,2013-05-09 20:41:00,
2013-05-09 16:56:00,79.0,59.0,30.05,West,278,0.0,-999.0,50,-99.99,,,0.00,weatherlink.com 1.10,2013-05-09 20:56:00,
2013-05-09 17:11:00,78.9,60.0,30.04,WNW,295,1.0,-999.0,52,-99.99,,,0.00,weatherlink.com 1.10,2013-05-09 21:11:00,
2013-05-09 17:26:00,79.2,58.0,30.04,WNW,302,4.0,-999.0,49,-99.99,,,0.00,weatherlink.com 1.10,2013-05-09 21:26:00,
2013-05-09 17:41:00,79.3,59.0,30.04,WNW,285,0.0,-999.0,50,-99.99,,,0.00,weatherlink.com 1.10,2013-05-09 21:41:00,
2013-05-09 17:56:00,79.1,58.0,30.03,NW,318,1.0,-999.0,49,-99.99,,,0.00,weatherlink.com 1.10,2013-05-09 21:56:00,
2013-05-09 18:11:00,79.0,59.0,30.03,NW,305,2.0,-999.0,50,-99.99,,,0.00,weatherlink.com 1.10,2013-05-09 22:11:00,
2013-05-09 18:26:00,78.7,59.0,30.03,WNW,293,6.0,-999.0,51,-99.99,,,0.00,weatherlink.com 1.10,2013-05-09 22:26:00,
2013-05-09 18:41:00,78.1,59.0,30.03,West,277,0.0,-999.0,53,-99.99,,,0.00,weatherlink.com 1.10,2013-05-09 22:41:00,
2013-05-09 18:56:00,77.5,59.0,30.03,SSE,162,0.0,-999.0,54,-99.99,,,0.00,weatherlink.com 1.10,2013-05-09 22:56:00,
2013-05-09 19:11:00,76.9,60.0,30.02,NW,312,0.0,-999.0,56,-99.99,,,0.00,weatherlink.com 1.10,2013-05-09 23:11:00,
2013-05-09 19:26:00,76.4,60.0,30.02,NW,312,0.0,-999.0,57,-99.99,,,0.00,weatherlink.com 1.10,2013-05-09 23:26:00,
2013-05-09 19:41:00,75.7,60.0,30.03,NW,312,0.0,-999.0,59,-99.99,,,0.00,weatherlink.com 1.10,2013-05-09 23:41:00,
2013-05-09 19:56:00,74.8,60.0,30.03,NW,312,0.0,-999.0,61,-99.99,,,0.00,weatherlink.com 1.10,2013-05-09 23:56:00,
2013-05-09 20:11:00,74.1,60.0,30.03,NW,312,0.0,-999.0,61,-99.99,,,0.00,weatherlink.com 1.10,2013-05-10 00:11:00,
2013-05-09 20:26:00,73.2,60.0,30.04,NW,312,0.0,-999.0,63,-99.99,,,0.00,weatherlink.com 1.10,2013-05-10 00:26:00,
2013-05-09 20:41:00,72.0,60.0,30.05,NW,312,0.0,-999.0,66,-99.99,,,0.00,weatherlink.com 1.10,2013-05-10 00:41:00,
2013-05-09 20:56:00,70.5,60.0,30.04,NW,312,0.0,-999.0,70,-99.99,,,0.00,weatherlink.com 1.10,2013-05-10 00:56:00,
2013-05-09 21:11:00,69.4,60.0,30.05,NW,312,0.0,-999.0,73,-99.99,,,0.00,weatherlink.com 1.10,2013-05-10 01:11:00,
2013-05-09 21:26:00,68.4,60.0,30.05,NW,312,0.0,-999.0,75,-99.99,,,0.00,weatherlink.com 1.10,2013-05-10 01:26:00,
2013-05-09 21:41:00,67.4,60.0,30.06,NW,312,0.0,-999.0,78,-99.99,,,0.00,weatherlink.com 1.10,2013-05-10 01:41:00,
2013-05-09 21:56:00,66.4,60.0,30.06,NW,312,0.0,-999.0,80,-99.99,,,0.00,weatherlink.com 1.10,2013-05-10 01:56:00,
2013-05-09 22:11:00,65.8,60.0,30.06,NW,312,0.0,-999.0,82,-99.99,,,0.00,weatherlink.com 1.10,2013-05-10 02:11:00,
2013-05-09 22:26:00,65.0,60.0,30.07,NW,312,0.0,-999.0,83,-99.99,,,0.00,weatherlink.com 1.10,2013-05-10 02:26:00,
2013-05-09 22:41:00,64.4,60.0,30.07,NW,312,0.0,-999.0,85,-99.99,,,0.00,weatherlink.com 1.10,2013-05-10 02:41:00,
2013-05-09 22:56:00,63.8,60.0,30.07,NW,312,0.0,-999.0,86,-99.99,,,0.00,weatherlink.com 1.10,2013-05-10 02:56:00,
2013-05-09 23:11:00,63.3,59.0,30.07,NW,312,0.0,-999.0,87,-99.99,,,0.00,weatherlink.com 1.10,2013-05-10 03:11:00,
2013-05-09 23:26:00,62.9,59.0,30.07,NW,312,0.0,-999.0,88,-99.99,,,0.00,weatherlink.com 1.10,2013-05-10 03:26:00,
2013-05-09 23:41:00,62.5,59.0,30.08,NW,312,0.0,-999.0,89,-99.99,,,0.00,weatherlink.com 1.10,2013-05-10 03:41:00,
2013-05-09 23:56:00,62.0,59.0,30.08,NW,312,0.0,-999.0,90,-99.99,,,0.00,weatherlink.com 1.10,2013-05-10 03:56:00,